When you browse on this site, cookies collect data to enhance your experience and personalize the content and advertising you see.
Visit our Privacy Policy to learn more. By continuing to use the site, you agree to this use of cookies and data.
  • In United Kingdom
  • List of Countries
  • For 7 days
  • Water Temperature
  • Weather Map
  • Weather Widgets
  • user-avatar
    Login

    Hourly Weather London

    Today, 29 January, Wednesday

    Time Temperature Precipitation Wind Pressure Humidity
    00:00 +1°C° 0 mm 6 mps 751 mmHg 77%
    01:00 +1°C° 0 mm 6 mps 751 mmHg 77%
    02:00 +1°C° 0 mm 6 mps 752 mmHg 77%
    03:00 +1°C° 0 mm 6 mps 752 mmHg 76%
    04:00 +1°C° 0 mm 6 mps 752 mmHg 77%
    05:00 +1°C° 0 mm 5 mps 753 mmHg 77%
    06:00 +1°C° 0 mm 5 mps 754 mmHg 77%
    07:00 +1°C° 0 mm 5 mps 754 mmHg 78%
    08:00 +1°C° 0 mm 5 mps 754 mmHg 78%
    09:00 +1°C° 0 mm 5 mps 755 mmHg 79%
    10:00 +2°C° 0 mm 5 mps 755 mmHg 75%
    11:00 +5°C° 0 mm 5 mps 756 mmHg 71%
    12:00 +5°C° 0 mm 6 mps 757 mmHg 67%
    13:00 +5°C° 0 mm 6 mps 756 mmHg 69%
    14:00 +6°C° 0 mm 5 mps 756 mmHg 70%
    15:00 +7°C° 0 mm 5 mps 756 mmHg 71%
    16:00 +6°C° 0 mm 5 mps 756 mmHg 75%
    17:00 +6°C° 0 mm 5 mps 756 mmHg 78%
    18:00 +5°C° 0 mm 5 mps 756 mmHg 82%
    19:00 +5°C° 0 mm 5 mps 756 mmHg 83%
    20:00 +5°C° 0 mm 5 mps 756 mmHg 84%
    21:00 +6°C° 0 mm 5 mps 756 mmHg 86%
    22:00 +5°C° 0 mm 5 mps 756 mmHg 87%
    23:00 +5°C° 0 mm 5 mps 755 mmHg 89%

    Tomorrow, 30 January, Thursday

    Time Temperature Precipitation Wind Pressure Humidity
    00:00 +5°C° 0 mm 4 mps 755 mmHg 90%
    01:00 +5°C° 0 mm 4 mps 755 mmHg 92%
    02:00 +5°C° 0 mm 4 mps 755 mmHg 94%
    03:00 +5°C° 0 mm 4 mps 754 mmHg 95%
    04:00 +5°C° 0 mm 3 mps 754 mmHg 96%
    05:00 +7°C° 0 mm 3 mps 753 mmHg 96%
    06:00 +7°C° 0 mm 3 mps 753 mmHg 96%
    07:00 +7°C° 0 mm 3 mps 753 mmHg 97%
    08:00 +7°C° 0 mm 3 mps 752 mmHg 97%
    09:00 +8°C° 0 mm 3 mps 752 mmHg 97%
    10:00 +8°C° 0 mm 3 mps 751 mmHg 96%
    11:00 +9°C° 0 mm 3 mps 751 mmHg 95%
    12:00 +10°C° 0 mm 4 mps 751 mmHg 93%
    13:00 +10°C° 0 mm 4 mps 750 mmHg 92%
    14:00 +11°C° 0 mm 4 mps 750 mmHg 91%
    15:00 +10°C° 0 mm 5 mps 750 mmHg 90%
    16:00 +10°C° 0 mm 5 mps 750 mmHg 89%
    17:00 +10°C° 0 mm 5 mps 750 mmHg 89%
    18:00 +10°C° 0 mm 5 mps 750 mmHg 89%
    19:00 +10°C° 0 mm 5 mps 751 mmHg 88%
    20:00 +10°C° 0 mm 5 mps 751 mmHg 88%
    21:00 +10°C° 0 mm 5 mps 752 mmHg 88%
    22:00 +10°C° 0 mm 5 mps 752 mmHg 88%
    23:00 +10°C° 0 mm 5 mps 753 mmHg 87%

    Day after tomorrow, 31 January, Friday

    Time Temperature Precipitation Wind Pressure Humidity
    00:00 +9°C° 0 mm 5 mps 753 mmHg 86%
    01:00 +9°C° 0 mm 5 mps 754 mmHg 87%
    02:00 +9°C° 0 mm 5 mps 754 mmHg 87%
    03:00 +8°C° 0 mm 5 mps 754 mmHg 87%
    04:00 +8°C° 0 mm 5 mps 754 mmHg 87%
    05:00 +8°C° 0 mm 5 mps 754 mmHg 88%
    06:00 +10°C° 0 mm 4 mps 754 mmHg 88%
    07:00 +9°C° 0 mm 5 mps 754 mmHg 88%
    08:00 +9°C° 0 mm 5 mps 754 mmHg 88%
    09:00 +9°C° 0 mm 6 mps 754 mmHg 88%
    10:00 +10°C° 0 mm 6 mps 754 mmHg 88%
    11:00 +10°C° 0 mm 6 mps 754 mmHg 87%
    12:00 +11°C° 0 mm 6 mps 754 mmHg 87%
    13:00 +11°C° 0 mm 6 mps 753 mmHg 87%
    14:00 +11°C° 0 mm 6 mps 753 mmHg 88%
    15:00 +11°C° 0 mm 6 mps 752 mmHg 88%
    16:00 +11°C° 0.1 mm 6 mps 752 mmHg 89%
    17:00 +11°C° 0.1 mm 6 mps 752 mmHg 90%
    18:00 +11°C° 0.1 mm 6 mps 752 mmHg 91%
    19:00 +11°C° 0 mm 6 mps 752 mmHg 91%
    20:00 +11°C° 0 mm 6 mps 752 mmHg 91%
    21:00 +12°C° 0 mm 5 mps 751 mmHg 91%
    22:00 +12°C° 0.1 mm 5 mps 751 mmHg 92%
    23:00 +12°C° 0.1 mm 5 mps 751 mmHg 93%

    1 February, Saturday

    Time Temperature Precipitation Wind Pressure Humidity
    00:00 +11°C° 0.1 mm 6 mps 750 mmHg 94%
    01:00 +12°C° 0.2 mm 5 mps 750 mmHg 93%
    02:00 +10°C° 0.2 mm 5 mps 749 mmHg 93%
    03:00 +10°C° 0.2 mm 5 mps 749 mmHg 93%
    04:00 +11°C° 0 mm 4 mps 749 mmHg 92%
    05:00 +10°C° 0 mm 4 mps 748 mmHg 92%
    06:00 +10°C° 0 mm 4 mps 748 mmHg 92%
    07:00 +10°C° 0.2 mm 4 mps 748 mmHg 90%
    08:00 +9°C° 0.2 mm 5 mps 748 mmHg 88%
    09:00 +8°C° 0.2 mm 5 mps 749 mmHg 86%
    10:00 +8°C° 0.5 mm 6 mps 750 mmHg 78%
    11:00 +7°C° 0.5 mm 8 mps 751 mmHg 70%
    12:00 +7°C° 0.5 mm 9 mps 752 mmHg 63%
    13:00 +7°C° 0 mm 9 mps 753 mmHg 62%
    14:00 +7°C° 0 mm 9 mps 754 mmHg 61%
    15:00 +7°C° 0 mm 9 mps 755 mmHg 61%
    16:00 +6°C° 0 mm 9 mps 756 mmHg 63%
    17:00 +6°C° 0 mm 8 mps 756 mmHg 65%
    18:00 +5°C° 0 mm 7 mps 757 mmHg 68%
    19:00 +5°C° 0 mm 6 mps 758 mmHg 70%
    20:00 +4°C° 0 mm 6 mps 758 mmHg 73%
    21:00 +5°C° 0 mm 5 mps 759 mmHg 75%
    22:00 +5°C° 0 mm 5 mps 759 mmHg 77%
    23:00 +4°C° 0 mm 4 mps 760 mmHg 79%

    2 February, Sunday

    Time Temperature Precipitation Wind Pressure Humidity
    00:00 +4°C° 0 mm 4 mps 760 mmHg 81%
    01:00 +5°C° 0 mm 4 mps 760 mmHg 82%
    02:00 +5°C° 0 mm 4 mps 759 mmHg 84%
    03:00 +5°C° 0 mm 3 mps 759 mmHg 85%
    04:00 +6°C° 1 mm 5 mps 758 mmHg 87%
    05:00 +5°C° 1 mm 6 mps 756 mmHg 89%
    06:00 +5°C° 1 mm 7 mps 755 mmHg 90%
    07:00 +7°C° 0.8 mm 8 mps 755 mmHg 91%
    08:00 +10°C° 0.8 mm 8 mps 754 mmHg 91%
    09:00 +11°C° 0.8 mm 8 mps 754 mmHg 91%
    10:00 +12°C° 0 mm 8 mps 755 mmHg 88%
    11:00 +12°C° 0 mm 8 mps 755 mmHg 84%
    12:00 +13°C° 0 mm 8 mps 755 mmHg 81%
    13:00 +14°C° 0 mm 7 mps 756 mmHg 81%
    14:00 +13°C° 0 mm 6 mps 756 mmHg 81%
    15:00 +13°C° 0 mm 5 mps 757 mmHg 80%
    16:00 +13°C° 0.1 mm 5 mps 757 mmHg 84%
    17:00 +12°C° 0.1 mm 4 mps 757 mmHg 88%
    18:00 +12°C° 0.1 mm 4 mps 757 mmHg 92%
    19:00 +11°C° 0.1 mm 4 mps 757 mmHg 93%
    20:00 +11°C° 0.1 mm 3 mps 757 mmHg 94%
    21:00 +11°C° 0.1 mm 3 mps 757 mmHg 95%
    22:00 +11°C° 0.3 mm 4 mps 757 mmHg 94%
    23:00 +11°C° 0.3 mm 4 mps 757 mmHg 94%

    3 February, Monday

    Time Temperature Precipitation Wind Pressure Humidity
    00:00 +10°C° 0.3 mm 5 mps 757 mmHg 93%
    01:00 +12°C° 0.2 mm 5 mps 756 mmHg 92%
    02:00 +11°C° 0.2 mm 6 mps 756 mmHg 91%
    03:00 +11°C° 0.2 mm 6 mps 756 mmHg 89%
    04:00 +11°C° 0 mm 6 mps 755 mmHg 89%
    05:00 +11°C° 0 mm 6 mps 755 mmHg 90%
    06:00 +11°C° 0 mm 7 mps 755 mmHg 90%
    07:00 +11°C° 0.1 mm 6 mps 755 mmHg 89%
    08:00 +11°C° 0.1 mm 6 mps 755 mmHg 89%
    09:00 +11°C° 0.1 mm 6 mps 754 mmHg 89%
    10:00 +11°C° 0.3 mm 7 mps 754 mmHg 88%
    11:00 +12°C° 0.3 mm 7 mps 754 mmHg 88%
    12:00 +12°C° 0.3 mm 8 mps 754 mmHg 87%
    13:00 +12°C° 0 mm 8 mps 754 mmHg 85%
    14:00 +12°C° 0 mm 8 mps 754 mmHg 83%
    15:00 +12°C° 0 mm 8 mps 754 mmHg 82%
    16:00 +11°C° 0 mm 7 mps 754 mmHg 81%
    17:00 +11°C° 0 mm 7 mps 755 mmHg 81%
    18:00 +10°C° 0 mm 6 mps 755 mmHg 81%
    19:00 +9°C° 0 mm 6 mps 756 mmHg 82%
    20:00 +9°C° 0 mm 6 mps 756 mmHg 83%
    21:00 +9°C° 0 mm 5 mps 756 mmHg 84%
    22:00 +9°C° 0.1 mm 6 mps 756 mmHg 82%
    23:00 +9°C° 0.1 mm 6 mps 756 mmHg 81%
    Show more